This is the latest recevied weather packets stored in our database for station/object N2WH. If no packets are shown the sender has not sent any weather packets the latest 10 day(s).
| Time | Temp. | Humidity | Pressure | Rain* | Wind** | Luminosity | Snow |
|---|---|---|---|---|---|---|---|
| 1777848534 | 13.89° C | 34% | 1011.4 hPa | 0 mm | - | 24 W/m² | - |
| 1777848231 | 13.89° C | 33% | 1011.5 hPa | 0 mm | - | 24 W/m² | - |
| 1777847929 | 14.44° C | 34% | 1011.2 hPa | 0 mm | - | 24 W/m² | - |
| 1777847627 | 14.44° C | 33% | 1011.4 hPa | 0 mm | - | 27 W/m² | - |
| 1777847322 | 14.44° C | 34% | 1011.2 hPa | 0 mm | - | 39 W/m² | - |
| 1777847021 | 14.44° C | 33% | 1011.3 hPa | 0 mm | - | 30 W/m² | - |
| 1777846718 | 14.44° C | 32% | 1011.3 hPa | 0 mm | - | 31 W/m² | - |
| 1777846417 | 14.44° C | 32% | 1011.3 hPa | 0 mm | - | 32 W/m² | - |
| 1777846112 | 14.44° C | 33% | 1011.3 hPa | 0 mm | - | 32 W/m² | - |
| 1777845810 | 13.89° C | 33% | 1011.5 hPa | 0 mm | - | 33 W/m² | - |
| 1777845507 | 14.44° C | 33% | 1011.4 hPa | 0 mm | - | 36 W/m² | - |
| 1777845204 | 14.44° C | 32% | 1011.2 hPa | 0 mm | - | 35 W/m² | - |
| 1777844901 | 14.44° C | 32% | 1011.3 hPa | 0 mm | - | 35 W/m² | - |
| 1777844598 | 14.44° C | 33% | 1011.5 hPa | 0 mm | - | 35 W/m² | - |
| 1777844296 | 14.44° C | 31% | 1011.3 hPa | 0 mm | - | 36 W/m² | - |
| 1777843994 | 13.89° C | 33% | 1011.2 hPa | 0 mm | - | 38 W/m² | - |
| 1777843690 | 14.44° C | 31% | 1011.2 hPa | 0 mm | - | 39 W/m² | - |
| 1777843388 | 14.44° C | 31% | 1011.4 hPa | 0 mm | - | 67 W/m² | - |
| 1777843085 | 14.44° C | 31% | 1011.3 hPa | 0 mm | - | 42 W/m² | - |
| 1777842782 | 14.44° C | 30% | 1011.3 hPa | 0 mm | - | 65 W/m² | - |
| 1777842481 | 14.44° C | 31% | 1011.3 hPa | 0 mm | - | 46 W/m² | - |
| 1777842180 | 14.44° C | 32% | 1011.1 hPa | 0 mm | - | 93 W/m² | - |
| 1777841874 | 14.44° C | 31% | 1011.1 hPa | 0 mm | - | 103 W/m² | - |
| 1777841571 | 14.44° C | 32% | 1011.1 hPa | 0 mm | - | 64 W/m² | - |
| 1777841267 | 15° C | 30% | 1011 hPa | 0 mm | - | 60 W/m² | - |
* Rain latest hour (hover to see other rain measurements)
** Current wind speed in m/s (hover to see current wind gust speed)